www.pogodaiklimat.ru

Погода и климат >> Архив погоды >> ОАЭ >> Абу-Даби Батин аэропорт


ПОГОДА в Абу-Даби Батин аэропорту

  • Прогноз погоды в Абу-Даби Батин аэропорту
  • Монитор погоды в Абу-Даби Батин аэропорту

АРХИВ ПОГОДЫ в Абу-Даби Батин аэропорту

Время (UTC), дата Ветер
(напр.,м/с)
 
Видим.   Явления Облачность Т
(С)
Тd
(С)
f
(%)
Тe
(С)
Тes
(С)
Комфортность P
(гПа)
Po
(гПа)
Тmin
(С)
Tmax
(С)
R
(мм)
R24
(мм)
S
(см)
12 14.04 З 9 10 км ясно +26.9 +14.5 47 +29 +30 жарко 1010.3 1009.9
15 14.04 З 6 10 км ясно +24.8 +16.9 61 +28 +28 жарко 1010.9 1010.5
18 14.04 З 3 10 км ясно +24.6 +15.7 58 +28 +28 душно 1012.8 1012.4 +27.6
21 14.04 З 2 10 км ясно +24.0 +14.0 54 +26 +26 жарко 1012.2 1011.8
00 15.04 Ю 2 10 км ясно +21.1 +17.4 79 +25 +25 комфорт 1011.4 1011.0
03 15.04 Ю 3 10 км ясно +21.1 +16.8 76 +25 +26 комфорт 1012.8 1012.4
06 15.04 ЮЗ 3 10 км ясно +25.4 +15.9 56 +29 +42 душно 1014.6 1014.2 +20.5
09 15.04 З 7 10 км ясно +30.5 +9.2 27 +30 +36 жарко 1013.5 1013.1
12 15.04 З 9 10 км ясно +30.0 +6.9 23 +29 +30 жарко 1011.6 1011.2
15 15.04 З 3 10 км ясно +27.5 +11.8 38 +29 +29 жарко 1012.4 1012.0
18 15.04 ЮЗ 2 10 км ясно +24.3 +17.2 65 +28 +28 душно 1013.2 1012.8 +31.2
21 15.04 Ю 2 10 км ясно +22.3 +19.5 84 +28 +28 душно 1012.6 1012.2
00 16.04 Ю 3 10 км ясно +19.9 +17.2 84 +23 +23 комфорт 1011.5 1011.1
03 16.04 Ю 3 10 км ясно +19.7 +14.4 71 +22 +23 комфорт 1012.6 1012.2
06 16.04 ЮЗ 3 10 км ясно +25.3 +10.9 40 +26 +39 жарко 1014.0 1013.6 +19.4
09 16.04 З 4 10 км ясно +32.1 +0.6 13 +29 +44 жарко 1012.6 1012.2
12 16.04 СЗ 5 10 км ясно +32.4 -1.5 11 +29 +33 жарко 1010.5 1010.1
15 16.04 С 3 10 км ясно +27.3 +12.8 41 +29 +29 жарко 1011.4 1011.0
18 16.04 В 1 10 км ясно +24.3 +17.7 67 +28 +28 душно 1012.8 1012.4 +33.0
21 16.04 ЮВ 2 10 км ясно +23.0 +15.9 64 +27 +27 душно 1011.4 1011.0
00 17.04 нст 1 10 км ясно +20.5 +15.1 71 +25 +25 комфорт 1010.4 1010.0
03 17.04 ЮЗ 2 9000 м мгла ясно +21.1 +14.6 66 +24 +25 комфорт 1011.7 1011.3
06 17.04 Ю 3 10 км ясно +28.6 +5.7 23 +27 +41 жарко 1012.8 1012.4 +19.8
09 17.04 С 3 10 км ясно +34.7 -1.0 10 +31 +48 жарко 1011.9 1011.5
12 17.04 С 4 10 км ясно +35.1 +3.0 13 +32 +38 жарко 1010.2 1009.8
15 17.04 С 3 10 км 1/0
[Ac trans]
+29.1 +10.5 31 +29 +29 жарко 1010.8 1010.4
18 17.04 нст 1 10 км ясно +26.3 +14.6 49 +29 +29 жарко 1011.9 1011.5 +35.6
21 17.04 СВ 1 10 км ясно +25.0 +13.1 48 +27 +27 жарко 1010.8 1010.4
00 18.04 ЮВ 2 10 км ясно +23.7 +8.3 37 +24 +24 комфорт 1009.8 1009.4
03 18.04 ЮВ 2 10 км ясно +24.8 +4.8 27 +24 +25 комфорт 1011.5 1011.1
06 18.04 Ю 2 10 км ясно +33.4 +1.6 13 +30 +46 жарко 1013.0 1012.6 +22.2
09 18.04 нст 3 10 км ясно +37.0 +2.2 11 +34 +52 опасность
солнечного
удара
1011.9 1011.5
12 18.04 СЗ 5 10 км ясно +37.0 +0.8 10 +33 +37 жарко 1009.8 1009.4
15 18.04 С 3 10 км ясно +29.8 +13.8 38 +32 +32 душно 1010.0 1009.6
18 18.04 СВ 2 10 км ясно +27.5 +13.7 43 +30 +30 жарко 1010.8 1010.4 +38.0
21 18.04 СВ 2 10 км ясно +27.4 +9.0 31 +27 +27 жарко 1009.9 1009.5
00 19.04 ЮВ 3 10 км ясно +25.8 +5.1 26 +25 +25 комфорт 1009.0 1008.6
03 19.04 ЮВ 2 10 км ясно +24.9 +4.8 27 +24 +26 комфорт 1010.0 1009.6
06 19.04 Ю 4 10 км ясно +34.5 +2.5 13 +31 +41 жарко 1011.7 1011.3 +24.0
09 19.04 ЮЗ 2 10 км ясно +38.7 +2.2 10 +35 +56 опасность
солнечного
удара
1010.5 1010.1
12 19.04 Ю 3 10 км ясно +39.3 +1.2 9 +36 +42 очень
жарко
1008.1 1007.7
15 19.04 С 2 10 км 1/0
[Ac trans]
+31.8 +13.4 33 +33 +33 жарко 1008.3 1007.9
18 19.04 В 3 10 км ясно +31.4 +8.1 23 +30 +30 жарко 1009.1 1008.7 +39.9
21 19.04 В 3 10 км ясно +29.5 +7.7 25 +29 +29 жарко 1008.3 1007.9
00 20.04 ЮВ 2 10 км 3/0
[Ac trans]
+28.3 +7.3 27 +28 +28 жарко 1006.4 1006.0
03 20.04 ЮВ 4 10 км ясно +29.2 +6.9 25 +28 +29 жарко 1007.4 1007.0
06 20.04 Ю 3 10 км ясно +34.7 +8.1 19 +33 +45 жарко 1008.8 1008.4 +28.0
09 20.04 ЮЗ 3 10 км ясно +39.7 +5.5 12 +37 +54 опасность
солнечного
удара
1007.3 1006.9
12 20.04 С 6 10 км ясно +34.5 +12.0 26 +35 +38 очень
жарко
1005.7 1005.3
18 20.04 В 3 10 км 1/0
[Ac trans]
+30.8 +11.6 31 +31 +31 жарко 1007.2 1006.8 +40.8
21 20.04 В 3 10 км 4/0
[Ac trans]
+30.4 +9.1 27 +30 +30 жарко 1006.1 1005.7
00 21.04 ЮВ 2 10 км 4/0
[Ac trans]
+29.0 +7.9 27 +28 +28 жарко 1004.5 1004.1
03 21.04 ЮВ 3 10 км 3/0
[Ac trans]
+30.1 +8.8 27 +30 +30 жарко 1005.6 1005.2
06 21.04 Ю 3 10 км 1/0
[Ac trans]
+34.8 +11.0 24 +34 +47 очень
жарко
1007.5 1007.1 +28.8
09 21.04 С 6 10 км 1/0
[Ac trans]
+36.6 +11.9 23 +36 +45 очень
жарко
1005.9 1005.5

 

Местоположение метеостанции Абу-Даби Батин аэропорт (ОАЭ): широта 24.43 долгота 54.46 высота над уровнем моря 5 м.

В архиве по умолчанию представлена погода в Абу-Даби Батин аэропорту за последнюю неделю. Архивные данные за месяц целиком и за предыдущие месяцы, начиная с января 2011 года, Вы можете получить, выбрав интересующий диапазон дат из раскрывающегося списка и нажав кнопку "Ввод!".


*Определитесь, кто Вы:
робот инопланетянин человек

Внимание! Время в таблицах - всемирное. Для получения местного времени необходимо прибавить поправку, которая равна 4 ч.

Смотрите также архив погоды в соседних городах и на ближайших метеорологических станциях:

Погода в Абу-Даби (ОАЭ) (19 км)
Погода в Аль-Мактум аэропорту (ОАЭ) (88 км)
Погода в Эль-Айне (ОАЭ) (117 км)
Погода в Дубае (ОАЭ) (127 км)
Погода в Эль-Бурайми (Оман) (136 км)
Погода в Шардже (ОАЭ) (146 км)
Погода на Острове Абу-Муса (Иран) (160 км)
Погода на Острове Сирри (Иран) (165 км)
Погода в Кумейре (Оман) (185 км)
Погода в Рай-эль-Хайма аэропорту (ОАЭ) (199 км)

Пояснения к столбцам:

Ветер - указаны скорость ветра в м/с - средняя за 10 мин, порывы в срок и между сроками (в фигурных скобках) и направление, откуда дует ветер: С - северный, СВ - северо-восточный, В - восточный, ЮВ - юго-восточный, Ю - южный, ЮЗ - юго-западный, З - западный, СЗ - северо-западный.
Видимость - горизонтальная дальность видимости в метрах или километрах. При видимости от 1 до 10 км при отсутствии осадков обычно наблюдается дымка, при ухудшении видимости до 1 км и менее - туман. В сухую погоду видимость может ухудшаться дымом, пылью или мглою.
Явления - указаны атмосферные явления, наблюдавшиеся в срок или в последний час перед сроком; фигурными скобками обозначены явления, наблюдавшиеся между сроками (за 1-3 часа до срока); квадратными скобками обозначены град или гололедные отложения с указанием их диаметра в мм.
Облачность - указаны через наклонную черту общая и нижняя облачность в баллах и высота нижней границы облаков в метрах; квадратными скобками обозначены формы облаков: Ci - перистые, Cs - перисто-слоистые, Cc - перисто-кучевые, Ac - высококучевые, As - высокослоистые, Sc - слоисто-кучевые, Ns - слоисто-дождевые, Cu - кучевые, Cb - кучево-дождевые. Подробнее классификацию облаков см. в Атласе облаков (PDF).
T - Температура воздуха - температура, измеренная на высоте 2 м над землей.
Td - Температура точки росы - температура, при понижении до которой содержащийся в воздухе водяной пар достигнет насыщения.
f - Относительная влажность воздуха - влажноcть воздуха, измеренная на высоте 2 м над землей.
Te - Эффективная температура - температура, которую ощущает одетый по сезону человек в тени. Характеристика душности погоды. При расчете учитывается влияние влажности воздуха и скорости ветра на теплоощущения человека.
Tes - Эффективная температура на солнце - температура, которую ощущает человек, с поправкой на солнечный нагрев. Характеристика знойности погоды. Зависит от высоты солнца над горизонтом, облачности и скорости ветра. Ночью, в пасмурную погоду, а также при ветре 12 м/с и более поправка равна нулю.
P - Атмосферное давление - приведенное к уровню моря атмосферное давление.
Po - Атмосферное давление - измеренное на уровне метеостанции атмосферное давление.
Tmin - Минимальная температура - минимум температуры воздуха на высоте 2 м над землей.
Tmax - Максимальная температура - максимум температуры воздуха на высоте 2 м над землей.
R - Количество осадков - Количество выпавших осадков за период времени, мм. При наведении курсора мыши на число - период времени, за который выпало указанное количество осадков.
R24 - Количество осадков - Количество выпавших осадков за 24 часа, мм.
S - Снежный покров - Высота снежного покрова, см. При наведении курсора мыши на число - состояние снежного покрова и степень покрытия местности в баллах.